Asheville, NC

1:02 PM EDT on July 24, 2017 (GMT -0400)
Asheville Regional

Weather History for KAVL - January, 2009

Change the Weather History Date:

Saturday, January 3, 2009

  Actual Average Record
Temperature  
Mean Temperature 46 °F 37 °F  
Max Temperature 59 °F 47 °F 73 °F (2004)
Min Temperature 32 °F 27 °F 2 °F (1887)
Degree Days  
Heating Degree Days 19 28  
Month to date heating degree days 81 84  
Since 1 July heating degree days 1806 1745  
Cooling Degree Days 0 0  
Month to date cooling degree days 0 0  
Year to date cooling degree days 0 0  
Moisture  
Dew Point 37 °F    
Average Humidity 74    
Maximum Humidity 100    
Minimum Humidity 47    
Precipitation  
Precipitation T in 0.11 in 1.87 in (1982)
Month to date precipitation 0.01 0.32  
Year to date precipitation 0.01 0.32  
Snow  
Snow 0.00 in 0.10 in 4.00 in (1872)
Month to date snowfall 0.0 0.3  
Since 1 July snowfall T 1.3  
Snow Depth -    
Sea Level Pressure  
Sea Level Pressure 30.07 in    
Wind  
Wind Speed 4 mph (NW)    
Max Wind Speed 13 mph    
Max Gust Speed 14 mph    
Visibility 5 miles    
Events Fog    
T = Trace of Precipitation, MM = Missing Value Source: NWS Daily Summary

Daily Weather History Graph

Daily Weather History Graph

Search for Another Location

Airport or City:

Trip Planner

Search our weather history database for the weather conditions in past years. The results will help you decide how hot, cold, wet, or windy it might be!

Date:

Astronomy

Jan. 03, 2009 Rise Set
Actual Time 7:39 AM EST 5:30 PM EST
Civil Twilight 7:11 AM EST 5:58 PM EST
Nautical Twilight 6:39 AM EST 6:30 PM EST
Astronomical Twilight 6:08 AM EST 7:00 PM EST
Moon 11:27 AM EST (1/3) No Moon Set
Length of Visible Light 10h 46m
Length of Day
9h 50m
Waxing Crescent, 42% of the Moon is Illuminated
Jan 3
Waxing Crescent
Jan 4
First Quarter
Jan 10
Full
Jan 17
Last Quarter
Jan 26
New

Hourly Weather History & Observations

Time (EST) Temp. Windchill Dew Point Humidity Pressure Visibility Wind Dir Wind Speed Gust Speed Precip Events Conditions
12:28 AM 32.0 °F 28.7 °F 30.2 °F 93% 30.04 in 5.0 mi WSW 3.5 mph - N/A   Scattered Clouds
12:37 AM 32.0 °F - 32.0 °F 100% 30.04 in 7.0 mi Calm Calm - N/A   Mostly Cloudy
12:54 AM 33.1 °F 28.7 °F 32.0 °F 96% 30.04 in 4.0 mi NNW 4.6 mph - N/A   Overcast
12:59 AM 33.8 °F 30.8 °F 33.8 °F 100% 30.03 in 1.5 mi NNW 3.5 mph - N/A   Overcast
1:02 AM 33.8 °F 30.8 °F 33.8 °F 100% 30.03 in 0.8 mi WNW 3.5 mph - N/A   Overcast
1:09 AM 32.0 °F - 32.0 °F 100% 30.03 in 0.5 mi Calm Calm - N/A Fog Fog
1:36 AM 33.8 °F - 33.8 °F 100% 30.03 in 0.2 mi Calm Calm - N/A Fog Fog
1:54 AM 34.0 °F - 34.0 °F 100% 30.04 in 0.2 mi Calm Calm - N/A Fog Fog
2:54 AM 33.1 °F - 33.1 °F 100% 30.04 in 0.2 mi Calm Calm - N/A Fog Fog
3:54 AM 35.1 °F 29.3 °F 35.1 °F 100% 30.03 in 0.2 mi NNW 6.9 mph - N/A Fog Fog
4:19 AM 33.8 °F 26.4 °F 33.8 °F 100% 30.03 in 0.5 mi NNW 9.2 mph - N/A Fog Fog
4:45 AM 33.8 °F 27.0 °F 33.8 °F 100% 30.03 in 0.2 mi NNW 8.1 mph - N/A Fog Fog
4:54 AM 34.0 °F 28.0 °F 34.0 °F 100% 30.04 in 0.2 mi North 6.9 mph - N/A Fog Fog
5:28 AM 35.6 °F 29.2 °F 35.6 °F 100% 30.04 in 0.5 mi NNW 8.1 mph - N/A Fog Fog
5:54 AM 35.1 °F 30.1 °F 35.1 °F 100% 30.06 in 0.5 mi NNW 5.8 mph - N/A Fog Fog
6:19 AM 35.6 °F 29.2 °F 35.6 °F 100% 30.05 in 1.0 mi NNW 8.1 mph - N/A   Overcast
6:54 AM 35.1 °F 30.1 °F 35.1 °F 100% 30.08 in 1.2 mi NW 5.8 mph - N/A   Overcast
7:10 AM 33.8 °F 28.6 °F 33.8 °F 100% 30.07 in 0.5 mi NW 5.8 mph - N/A Fog Fog
7:51 AM 33.8 °F 27.7 °F 33.8 °F 100% 30.08 in 0.1 mi NNW 6.9 mph - N/A Fog Fog
7:54 AM 34.0 °F 28.8 °F 34.0 °F 100% 30.10 in 0.1 mi NNW 5.8 mph - N/A Fog Fog
8:30 AM 33.8 °F - 33.8 °F 100% 30.09 in 0.2 mi Calm Calm - N/A Fog Fog
8:54 AM 34.0 °F 28.8 °F 34.0 °F 100% 30.11 in 0.2 mi NNW 5.8 mph - N/A Fog Fog
9:54 AM 35.1 °F 30.1 °F 35.1 °F 100% 30.13 in 0.2 mi NNW 5.8 mph - N/A Fog Fog
10:49 AM 37.4 °F 33.8 °F 37.4 °F 100% 30.11 in 3.0 mi NNW 4.6 mph - N/A   Overcast
10:54 AM 37.0 °F 34.5 °F 37.0 °F 100% 30.13 in 2.0 mi NNW 3.5 mph - N/A   Overcast
11:15 AM 39.2 °F 37.0 °F 37.4 °F 93% 30.10 in 5.0 mi NW 3.5 mph - N/A   Scattered Clouds
11:54 AM 45.0 °F - 39.0 °F 80% 30.09 in 10.0 mi Calm Calm - N/A   Clear
12:54 PM 52.0 °F - 39.0 °F 61% 30.06 in 10.0 mi Calm Calm - N/A   Clear
1:54 PM 55.9 °F - 39.9 °F 55% 30.04 in 10.0 mi Calm Calm - N/A   Mostly Cloudy
2:54 PM 59.0 °F - 39.9 °F 49% 30.03 in 10.0 mi Calm Calm - N/A   Mostly Cloudy
3:54 PM 57.9 °F - 43.0 °F 58% 30.04 in 10.0 mi South 3.5 mph - N/A   Overcast
4:54 PM 55.0 °F - 46.9 °F 74% 30.04 in 10.0 mi South 5.8 mph - 0.00 in   Overcast
5:54 PM 51.1 °F - 43.0 °F 74% 30.06 in 10.0 mi SE 3.5 mph - N/A   Mostly Cloudy
6:54 PM 48.0 °F - 42.1 °F 80% 30.09 in 10.0 mi South 6.9 mph - N/A   Clear
7:30 PM 48.2 °F - 42.8 °F 82% 30.08 in 10.0 mi South 4.6 mph - N/A   Mostly Cloudy
7:54 PM 48.9 °F - 43.0 °F 80% 30.09 in 10.0 mi SE 3.5 mph - N/A   Overcast
8:02 PM 48.2 °F - 42.8 °F 82% 30.09 in 10.0 mi SSE 5.8 mph - N/A   Overcast
8:54 PM 48.0 °F - 43.0 °F 83% 30.10 in 10.0 mi SSE 8.1 mph - N/A   Overcast
9:09 PM 48.2 °F - 42.8 °F 82% 30.09 in 10.0 mi South 8.1 mph - N/A   Overcast
9:54 PM 48.9 °F - 42.1 °F 77% 30.09 in 10.0 mi SSE 3.5 mph - N/A   Overcast
10:54 PM 48.9 °F - 44.1 °F 83% 30.10 in 10.0 mi SSW 3.5 mph - N/A   Overcast
11:54 PM 48.0 °F - 46.0 °F 93% 30.08 in 9.0 mi South 4.6 mph - 0.00 in   Overcast